Dades meteomassalio
Diari Summary for Gener 20, 2017 Units:  Metric    English   Both
« Previous Day
Next Day »
Diari Semanal Mensual Anual Personalitzat
  Maxima: Minima: Mijana:
Temperatura: 5.7 °C 1.3 °C 3.7 °C
Rosada: 4.8 °C -2.0 °C 2.5 °C
Humitat: 94 % 77 % 92 %
Velocitat del vent: 11.1 km/h 0.0 km/h 0.1 km/h
Racha vent: 11.1 km/h - -
Vent:- - SSW
Pressio: 1024.3 hPa 1021.2 hPa -
Pluja: 18.0 mm    
Historical Graphs
 
 
Tabular Data for Gener 20, 2017
Time Temperature Dew Point Pressure Wind Wind Speed Wind Gust Humidity Rainfall Rate (Hourly) solar Conditions
00:02 1.6 °C -2.0 °C 1024.3 hPa Calm     77 % 0.0 mm 0.0 W/m2 CLR
00:07 1.6 °C -2.0 °C 1024.3 hPa Calm     77 % 0.0 mm 0.0 W/m2 CLR
00:12 1.7 °C -1.9 °C 1024.3 hPa Calm     77 % 0.0 mm 0.0 W/m2 CLR
00:17 1.7 °C -1.9 °C 1024.3 hPa Calm     77 % 0.0 mm 0.0 W/m2 CLR
00:22 1.7 °C -1.8 °C 1024.3 hPa Calm     78 % 0.0 mm 0.0 W/m2 CLR
00:28 1.7 °C -1.8 °C 1024.3 hPa Calm     78 % 0.0 mm 0.0 W/m2 CLR
00:33 1.7 °C -1.6 °C 1024.3 hPa Calm     79 % 0.0 mm 0.0 W/m2 CLR
00:38 1.7 °C -1.6 °C 1023.9 hPa Calm     79 % 0.0 mm 0.0 W/m2 CLR
00:43 1.6 °C -1.4 °C 1023.9 hPa Calm     80 % 0.0 mm 0.0 W/m2 CLR
00:48 1.6 °C -1.4 °C 1023.9 hPa Calm     80 % 0.0 mm 0.0 W/m2 CLR
00:53 1.6 °C -1.4 °C 1023.9 hPa Calm     80 % 0.0 mm 0.0 W/m2 CLR
00:58 1.6 °C -1.3 °C 1023.6 hPa Calm     81 % 0.0 mm 0.0 W/m2 CLR
01:03 1.6 °C -1.1 °C 1023.6 hPa Calm     82 % 0.0 mm 0.0 W/m2 CLR
01:08 1.6 °C -1.1 °C 1023.6 hPa Calm     82 % 0.0 mm 0.0 W/m2 CLR
01:13 1.6 °C -1.2 °C 1023.6 hPa Calm     82 % 0.0 mm 0.0 W/m2 CLR
01:18 1.6 °C -0.9 °C 1023.6 hPa Calm     83 % 0.0 mm 0.0 W/m2 CLR
01:23 1.6 °C -0.8 °C 1023.9 hPa Calm     84 % 0.0 mm 0.0 W/m2 CLR
01:28 1.6 °C -0.7 °C 1023.9 hPa Calm     85 % 0.3 mm 0.0 W/m2 RA
01:33 1.5 °C -0.6 °C 1023.6 hPa Calm     86 % 0.3 mm 0.0 W/m2 CLR
01:38 1.5 °C -0.6 °C 1023.9 hPa Calm     86 % 0.5 mm 0.0 W/m2 RA
01:43 1.5 °C -0.4 °C 1023.6 hPa Calm     87 % 0.5 mm 0.0 W/m2 RA
01:48 1.4 °C -0.5 °C 1023.6 hPa Calm     87 % 0.5 mm 0.0 W/m2
01:53 1.4 °C -0.3 °C 1023.6 hPa Calm     88 % 0.5 mm 0.0 W/m2 CLR
01:58 1.4 °C -0.4 °C 1023.6 hPa Calm     88 % 0.8 mm 0.0 W/m2 RA
02:03 1.3 °C -0.4 °C 1023.6 hPa Calm     88 % 0.8 mm 0.0 W/m2 CLR
02:08 1.3 °C -0.3 °C 1023.2 hPa Calm     89 % 1.0 mm 0.0 W/m2 RA
02:13 1.3 °C -0.3 °C 1023.6 hPa Calm     89 % 1.0 mm 0.0 W/m2
02:18 1.3 °C -0.3 °C 1023.2 hPa Calm     89 % 1.0 mm 0.0 W/m2 CLR
02:23 1.3 °C -0.1 °C 1023.2 hPa Calm     90 % 1.0 mm 0.0 W/m2 CLR
02:28 1.4 °C -0.1 °C 1023.6 hPa Calm     90 % 1.0 mm 0.0 W/m2 RA
02:33 1.4 °C 0.1 °C 1023.6 hPa SW 5.6 km/h 5.6 km/h 91 % 1.0 mm 0.0 W/m2
02:38 1.5 °C 0.2 °C 1023.6 hPa Calm     91 % 0.8 mm 0.0 W/m2 CLR
02:43 1.6 °C 0.2 °C 1023.2 hPa Calm     91 % 0.5 mm 0.0 W/m2 CLR
02:48 1.6 °C 0.3 °C 1023.2 hPa Calm     91 % 0.5 mm 0.0 W/m2 CLR
02:53 1.7 °C 0.4 °C 1023.2 hPa Calm     91 % 0.5 mm 0.0 W/m2 CLR
02:58 1.7 °C 0.4 °C 1023.2 hPa Calm     91 % 0.5 mm 0.0 W/m2 CLR
03:03 1.8 °C 0.4 °C 1023.6 hPa Calm     91 % 0.5 mm 0.0 W/m2 CLR
03:08 1.7 °C 0.4 °C 1023.2 hPa Calm     91 % 0.3 mm 0.0 W/m2 CLR
03:13 1.8 °C 0.6 °C 1023.2 hPa Calm     92 % 0.3 mm 0.0 W/m2 CLR
03:18 1.8 °C 0.6 °C 1023.2 hPa Calm     92 % 0.5 mm 0.0 W/m2 RA
03:23 1.8 °C 0.7 °C 1023.2 hPa Calm     92 % 0.5 mm 0.0 W/m2 CLR
03:28 1.8 °C 0.7 °C 1023.2 hPa Calm     92 % 0.3 mm 0.0 W/m2 CLR
03:33 1.8 °C 0.7 °C 1023.2 hPa Calm     92 % 0.3 mm 0.0 W/m2 CLR
03:38 1.8 °C 0.7 °C 1023.2 hPa Calm     92 % 0.5 mm 0.0 W/m2 RA
03:43 1.8 °C 0.7 °C 1023.2 hPa Calm     92 % 0.5 mm 0.0 W/m2
03:48 1.9 °C 0.7 °C 1023.2 hPa Calm     92 % 0.5 mm 0.0 W/m2 CLR
03:53 1.9 °C 0.8 °C 1023.2 hPa Calm     92 % 0.5 mm 0.0 W/m2 CLR
03:58 2.1 °C 0.9 °C 1023.2 hPa Calm     92 % 0.5 mm 0.0 W/m2 RA
04:03 2.2 °C 1.0 °C 1023.2 hPa Calm     92 % 0.5 mm 0.0 W/m2
04:08 2.2 °C 1.0 °C 1023.2 hPa Calm     92 % 0.5 mm 0.0 W/m2 CLR
04:13 2.2 °C 1.0 °C 1023.2 hPa Calm     92 % 0.5 mm 0.0 W/m2 CLR
04:18 2.2 °C 1.0 °C 1023.2 hPa Calm     92 % 0.5 mm 0.0 W/m2 RA
04:23 2.2 °C 1.0 °C 1023.2 hPa Calm     92 % 0.5 mm 0.0 W/m2
04:28 2.2 °C 1.0 °C 1023.2 hPa Calm     92 % 0.5 mm 0.0 W/m2 CLR
04:33 2.2 °C 1.1 °C 1023.2 hPa Calm     92 % 0.8 mm 0.0 W/m2 RA
04:38 2.2 °C 1.1 °C 1023.2 hPa Calm     92 % 0.5 mm 0.0 W/m2
04:43 2.3 °C 1.1 °C 1022.9 hPa Calm     92 % 0.5 mm 0.0 W/m2 CLR
04:48 2.3 °C 1.1 °C 1022.9 hPa Calm     92 % 0.5 mm 0.0 W/m2 CLR
04:53 2.3 °C 1.1 °C 1022.9 hPa Calm     92 % 0.5 mm 0.0 W/m2 CLR
04:58 2.3 °C 1.1 °C 1022.9 hPa Calm     92 % 0.5 mm 0.0 W/m2 RA
05:03 2.2 °C 1.1 °C 1022.6 hPa Calm     92 % 0.5 mm 0.0 W/m2
05:08 2.2 °C 1.1 °C 1022.6 hPa Calm     92 % 0.5 mm 0.0 W/m2 CLR
05:13 2.2 °C 1.1 °C 1022.9 hPa Calm     92 % 0.5 mm 0.0 W/m2 CLR
05:18 2.2 °C 1.1 °C 1022.9 hPa Calm     92 % 0.5 mm 0.0 W/m2 CLR
05:23 2.2 °C 1.1 °C 1022.9 hPa Calm     92 % 0.5 mm 0.0 W/m2 RA
05:28 2.2 °C 1.0 °C 1022.9 hPa Calm     92 % 0.8 mm 0.0 W/m2 RA
05:33 2.2 °C 1.0 °C 1022.9 hPa Calm     92 % 0.5 mm 0.0 W/m2
05:38 2.2 °C 1.0 °C 1022.9 hPa Calm     92 % 0.5 mm 0.0 W/m2 CLR
05:43 2.2 °C 1.1 °C 1022.9 hPa Calm     92 % 0.8 mm 0.0 W/m2 RA
05:48 2.2 °C 1.0 °C 1022.9 hPa Calm     92 % 1.0 mm 0.0 W/m2 RA
05:53 2.2 °C 1.0 °C 1022.9 hPa Calm     92 % 1.0 mm 0.0 W/m2
05:59 2.1 °C 1.1 °C 1022.6 hPa Calm     93 % 0.8 mm 0.0 W/m2 CLR
06:04 2.1 °C 1.1 °C 1022.6 hPa Calm     93 % 0.8 mm 0.0 W/m2 CLR
06:09 2.2 °C 1.2 °C 1022.6 hPa Calm     93 % 1.0 mm 0.0 W/m2 RA
06:14 2.2 °C 1.2 °C 1022.6 hPa Calm     93 % 1.0 mm 0.0 W/m2
06:19 2.2 °C 1.2 °C 1022.6 hPa Calm     93 % 1.3 mm 0.0 W/m2 RA
06:24 2.3 °C 1.3 °C 1022.6 hPa Calm     93 % 1.0 mm 0.0 W/m2 CLR
06:29 2.3 °C 1.3 °C 1022.6 hPa Calm     93 % 0.8 mm 0.0 W/m2 CLR
06:34 2.3 °C 1.3 °C 1022.6 hPa Calm     93 % 1.0 mm 0.0 W/m2 RA
06:39 2.3 °C 1.3 °C 1022.6 hPa Calm     93 % 1.3 mm 0.0 W/m2 RA
06:44 2.3 °C 1.3 °C 1022.6 hPa Calm     93 % 1.0 mm 0.0 W/m2 CLR
06:49 2.3 °C 1.3 °C 1022.6 hPa Calm     93 % 1.0 mm 0.0 W/m2 RA
06:54 2.3 °C 1.3 °C 1022.6 hPa Calm     93 % 1.3 mm 0.0 W/m2 RA
06:59 2.3 °C 1.3 °C 1022.6 hPa Calm     93 % 1.5 mm 0.0 W/m2 RA
07:04 2.4 °C 1.4 °C 1022.6 hPa Calm     93 % 1.5 mm 0.0 W/m2
07:09 2.4 °C 1.4 °C 1022.6 hPa Calm     93 % 1.5 mm 0.0 W/m2 RA
07:14 2.4 °C 1.4 °C 1022.6 hPa Calm     93 % 1.5 mm 0.0 W/m2 RA
07:19 2.4 °C 1.4 °C 1022.6 hPa Calm     93 % 1.5 mm 0.0 W/m2
07:24 2.5 °C 1.5 °C 1022.9 hPa Calm     93 % 1.5 mm 0.0 W/m2 RA
07:29 2.5 °C 1.5 °C 1022.9 hPa Calm     93 % 1.5 mm 0.0 W/m2
07:34 2.5 °C 1.5 °C 1022.9 hPa Calm     93 % 1.5 mm 0.0 W/m2 CLR
07:39 2.6 °C 1.6 °C 1022.9 hPa Calm     93 % 1.5 mm 0.0 W/m2 RA
07:44 2.6 °C 1.6 °C 1022.9 hPa Calm     93 % 1.5 mm 0.0 W/m2
07:49 2.7 °C 1.7 °C 1022.9 hPa Calm     93 % 1.5 mm 0.0 W/m2 RA
07:54 2.7 °C 1.7 °C 1022.9 hPa Calm     93 % 1.3 mm 0.0 W/m2
07:59 2.7 °C 1.7 °C 1022.9 hPa Calm     93 % 1.3 mm 0.0 W/m2 RA
08:04 2.8 °C 1.8 °C 1022.9 hPa Calm     93 % 1.5 mm 0.0 W/m2 RA
08:09 2.8 °C 1.8 °C 1022.9 hPa Calm     93 % 1.3 mm 0.0 W/m2
08:14 2.8 °C 1.8 °C 1022.9 hPa Calm     93 % 1.0 mm 0.0 W/m2 CLR
08:19 2.7 °C 1.7 °C 1022.9 hPa Calm     93 % 1.3 mm 0.0 W/m2 RA
08:24 2.7 °C 1.7 °C 1022.9 hPa Calm     93 % 1.0 mm 0.0 W/m2 CLR
08:29 2.7 °C 1.7 °C 1022.9 hPa Calm     93 % 1.0 mm 0.0 W/m2 OVC
08:34 2.8 °C 1.8 °C 1022.9 hPa Calm     93 % 1.0 mm 0.0 W/m2 OVC
08:39 2.8 °C 1.8 °C 1022.9 hPa Calm     93 % 1.0 mm 0.0 W/m2 RA
08:44 2.8 °C 1.8 °C 1022.9 hPa Calm     93 % 1.0 mm 0.0 W/m2 CLR
08:49 2.8 °C 1.8 °C 1022.9 hPa Calm     93 % 0.8 mm 5.0 W/m2 OVC
08:54 2.9 °C 2.0 °C 1022.9 hPa Calm     94 % 0.8 mm 9.0 W/m2 OVC
08:59 2.9 °C 2.1 °C 1022.9 hPa Calm     94 % 0.8 mm 11.0 W/m2 RA
09:04 2.9 °C 2.1 °C 1022.9 hPa Calm     94 % 0.8 mm 9.0 W/m2 RA
09:09 3.0 °C 2.1 °C 1022.9 hPa Calm     94 % 0.8 mm 9.0 W/m2
09:14 3.1 °C 2.2 °C 1023.2 hPa Calm     94 % 1.0 mm 11.0 W/m2 RA
09:19 3.1 °C 2.1 °C 1022.9 hPa Calm     93 % 0.8 mm 14.0 W/m2
09:24 3.1 °C 2.1 °C 1023.2 hPa Calm     93 % 1.0 mm 16.0 W/m2 RA
09:29 3.2 °C 2.2 °C 1023.2 hPa Calm     93 % 1.0 mm 19.0 W/m2 CLR
09:34 3.2 °C 2.2 °C 1023.2 hPa Calm     93 % 1.3 mm 21.0 W/m2 RA
09:39 3.2 °C 2.2 °C 1023.2 hPa Calm     93 % 1.3 mm 23.0 W/m2 RA
09:44 3.2 °C 2.2 °C 1023.2 hPa Calm     93 % 1.3 mm 25.0 W/m2 BKN
09:49 3.1 °C 2.1 °C 1023.2 hPa Calm     93 % 1.5 mm 19.0 W/m2 RA
09:54 3.1 °C 2.1 °C 1023.2 hPa Calm     93 % 1.5 mm 16.0 W/m2 RA
09:59 3.1 °C 2.1 °C 1023.2 hPa Calm     93 % 1.5 mm 14.0 W/m2 RA
10:04 3.2 °C 2.2 °C 1023.2 hPa Calm     93 % 1.5 mm 16.0 W/m2 RA
10:09 3.2 °C 2.2 °C 1023.6 hPa Calm     93 % 1.5 mm 16.0 W/m2 OVC
10:14 3.2 °C 2.2 °C 1023.2 hPa Calm     93 % 1.5 mm 18.0 W/m2 OVC
10:19 3.2 °C 2.2 °C 1023.6 hPa Calm     93 % 1.5 mm 19.0 W/m2 OVC
10:24 3.2 °C 2.2 °C 1023.2 hPa Calm     93 % 1.3 mm 18.0 W/m2 OVC
10:29 3.2 °C 2.2 °C 1023.2 hPa Calm     93 % 1.3 mm 21.0 W/m2 OVC
10:34 3.2 °C 2.2 °C 1023.6 hPa Calm     93 % 1.0 mm 21.0 W/m2 OVC
10:39 3.2 °C 2.2 °C 1023.6 hPa Calm     93 % 0.8 mm 23.0 W/m2 OVC
10:40 3.2 °C 2.2 °C 1023.6 hPa Calm     93 % 0.8 mm 23.0 W/m2 OVC
10:45 3.2 °C 2.2 °C 1023.6 hPa Calm     93 % 0.8 mm 26.0 W/m2 OVC
10:50 3.3 °C 2.4 °C 1023.6 hPa Calm     94 % 0.8 mm 40.0 W/m2 RA
10:55 3.3 °C 2.4 °C 1023.6 hPa Calm     94 % 0.5 mm 35.0 W/m2 BKN
11:00 3.4 °C 2.5 °C 1023.6 hPa Calm     94 % 0.5 mm 35.0 W/m2 BKN
11:05 3.5 °C 2.6 °C 1023.6 hPa Calm     94 % 0.3 mm 44.0 W/m2 BKN
11:10 3.6 °C 2.7 °C 1023.6 hPa Calm     94 % 0.3 mm 53.0 W/m2 BKN
11:15 3.6 °C 2.7 °C 1023.6 hPa Calm     94 % 0.3 mm 47.0 W/m2 BKN
11:20 3.7 °C 2.8 °C 1023.6 hPa Calm     94 % 0.3 mm 51.0 W/m2 BKN
11:25 3.7 °C 2.8 °C 1023.6 hPa Calm     94 % 0.3 mm 39.0 W/m2 BKN
11:30 3.7 °C 2.8 °C 1023.6 hPa Calm     94 % 0.3 mm 37.0 W/m2 BKN
11:35 3.7 °C 2.8 °C 1023.6 hPa Calm     94 % 0.3 mm 32.0 W/m2 BKN
11:40 3.7 °C 2.8 °C 1023.6 hPa Calm     94 % 0.5 mm 28.0 W/m2 RA
11:45 3.7 °C 2.8 °C 1023.6 hPa Calm     94 % 0.5 mm 26.0 W/m2 BKN
11:50 3.8 °C 2.9 °C 1023.6 hPa Calm     94 % 0.3 mm 39.0 W/m2 BKN
11:55 3.8 °C 2.9 °C 1023.6 hPa Calm     94 % 0.3 mm 44.0 W/m2 BKN
12:00 3.8 °C 2.9 °C 1023.2 hPa Calm     94 % 0.3 mm 40.0 W/m2 BKN
12:05 3.9 °C 3.1 °C 1023.2 hPa Calm     94 % 0.3 mm 39.0 W/m2 BKN
12:10 4.0 °C 3.1 °C 1023.2 hPa Calm     94 % 0.3 mm 42.0 W/m2 BKN
12:15 4.0 °C 3.1 °C 1023.2 hPa Calm     94 % 0.3 mm 58.0 W/m2 BKN
12:20 4.0 °C 3.1 °C 1023.2 hPa Calm     94 % 0.5 mm 84.0 W/m2 RA
12:25 4.1 °C 3.2 °C 1023.2 hPa Calm     94 % 0.5 mm 76.0 W/m2 BKN
12:30 4.2 °C 3.3 °C 1023.2 hPa Calm     94 % 0.5 mm 77.0 W/m2 RA
12:35 4.3 °C 3.4 °C 1022.9 hPa Calm     94 % 0.8 mm 70.0 W/m2 RA
12:40 4.2 °C 3.3 °C 1022.9 hPa WNW 5.6 km/h 5.6 km/h 94 % 0.5 mm 49.0 W/m2 BKN
12:45 4.2 °C 3.3 °C 1022.9 hPa Calm     94 % 0.5 mm 74.0 W/m2 BKN
12:50 4.3 °C 3.4 °C 1022.9 hPa Calm     94 % 0.8 mm 63.0 W/m2 RA
12:55 4.3 °C 3.4 °C 1022.9 hPa Calm     94 % 0.8 mm 74.0 W/m2 BKN
13:00 4.4 °C 3.6 °C 1022.9 hPa Calm     94 % 0.8 mm 90.0 W/m2 BKN
13:05 4.5 °C 3.6 °C 1022.6 hPa Calm     94 % 1.0 mm 63.0 W/m2 RA
13:10 4.5 °C 3.4 °C 1022.6 hPa Calm     93 % 1.3 mm 47.0 W/m2 RA
13:15 4.4 °C 3.4 °C 1022.6 hPa Calm     93 % 1.3 mm 37.0 W/m2 BKN
13:20 4.4 °C 3.4 °C 1022.6 hPa Calm     93 % 1.0 mm 49.0 W/m2 BKN
13:25 4.4 °C 3.4 °C 1022.2 hPa Calm     93 % 1.0 mm 37.0 W/m2 BKN
13:30 4.5 °C 3.4 °C 1022.2 hPa Calm     93 % 0.8 mm 46.0 W/m2 BKN
13:35 4.6 °C 3.5 °C 1022.2 hPa Calm     93 % 0.5 mm 39.0 W/m2 BKN
13:40 4.6 °C 3.5 °C 1022.2 hPa Calm     93 % 0.8 mm 49.0 W/m2 RA
13:45 4.6 °C 3.6 °C 1022.2 hPa Calm     93 % 0.8 mm 42.0 W/m2 BKN
13:50 4.7 °C 3.6 °C 1021.9 hPa Calm     93 % 0.5 mm 33.0 W/m2 BKN
13:55 4.7 °C 3.7 °C 1021.9 hPa Calm     93 % 0.5 mm 37.0 W/m2 BKN
14:00 4.7 °C 3.7 °C 1021.9 hPa Calm     93 % 0.5 mm 32.0 W/m2 BKN
14:05 4.7 °C 3.7 °C 1021.9 hPa Calm     93 % 0.5 mm 25.0 W/m2 BKN
14:10 4.7 °C 3.6 °C 1021.9 hPa Calm     93 % 0.3 mm 26.0 W/m2 BKN
14:15 4.7 °C 3.6 °C 1021.9 hPa Calm     93 % 0.5 mm 28.0 W/m2 RA
14:20 4.7 °C 3.6 °C 1021.9 hPa Calm     93 % 0.5 mm 21.0 W/m2 BKN
14:25 4.6 °C 3.6 °C 1021.9 hPa Calm     93 % 0.5 mm 19.0 W/m2 OVC
14:30 4.6 °C 3.6 °C 1021.9 hPa Calm     93 % 0.5 mm 25.0 W/m2 OVC
14:35 4.6 °C 3.6 °C 1021.9 hPa Calm     93 % 0.5 mm 28.0 W/m2 RA
14:40 4.7 °C 3.8 °C 1021.9 hPa Calm     94 % 0.5 mm 37.0 W/m2 BKN
14:45 4.7 °C 3.7 °C 1021.9 hPa Calm     93 % 0.5 mm 39.0 W/m2 RA
14:50 4.8 °C 3.7 °C 1021.9 hPa Calm     93 % 0.5 mm 47.0 W/m2 BKN
14:55 4.8 °C 3.7 °C 1021.9 hPa Calm     93 % 0.8 mm 51.0 W/m2 RA
15:00 4.8 °C 3.8 °C 1021.9 hPa Calm     93 % 0.8 mm 53.0 W/m2 BKN
15:05 4.8 °C 3.8 °C 1021.9 hPa Calm     93 % 1.0 mm 63.0 W/m2 RA
15:10 4.9 °C 3.8 °C 1021.9 hPa Calm     93 % 1.3 mm 54.0 W/m2 RA
15:15 5.0 °C 3.9 °C 1021.6 hPa Calm     93 % 1.0 mm 44.0 W/m2 BKN
15:20 5.1 °C 4.2 °C 1021.6 hPa Calm     94 % 1.3 mm 35.0 W/m2 RA
15:25 5.2 °C 4.3 °C 1021.6 hPa Calm     94 % 1.3 mm 30.0 W/m2 BKN
15:30 5.2 °C 4.2 °C 1021.6 hPa Calm     93 % 1.3 mm 25.0 W/m2 BKN
15:35 5.3 °C 4.4 °C 1021.6 hPa Calm     94 % 1.0 mm 33.0 W/m2 BKN
15:40 5.4 °C 4.6 °C 1021.6 hPa Calm     94 % 1.3 mm 39.0 W/m2 RA
15:45 5.4 °C 4.4 °C 1021.6 hPa Calm     93 % 1.0 mm 39.0 W/m2 BKN
15:50 5.4 °C 4.4 °C 1021.6 hPa Calm     93 % 1.3 mm 26.0 W/m2 RA
15:55 5.4 °C 4.4 °C 1021.6 hPa Calm     93 % 1.0 mm 19.0 W/m2 BKN
16:00 5.4 °C 4.3 °C 1021.6 hPa Calm     93 % 1.5 mm 19.0 W/m2 RA
16:05 5.4 °C 4.3 °C 1021.6 hPa Calm     93 % 1.3 mm 19.0 W/m2 BKN
16:10 5.3 °C 4.3 °C 1021.6 hPa Calm     93 % 1.3 mm 21.0 W/m2 RA
16:40 5.3 °C 4.3 °C 1021.2 hPa Calm     93 % 1.5 mm 12.0 W/m2 RA
16:46 5.3 °C 4.3 °C 1021.2 hPa Calm     93 % 2.0 mm 14.0 W/m2 RA
16:50 5.3 °C 4.3 °C 1021.2 hPa Calm     93 % 2.0 mm 11.0 W/m2 RA
16:55 5.3 °C 4.2 °C 1021.2 hPa Calm     93 % 2.3 mm 7.0 W/m2 RA
17:01 5.2 °C 4.2 °C 1021.2 hPa Calm     93 % 1.8 mm 9.0 W/m2
17:06 5.2 °C 4.2 °C 1021.2 hPa Calm     93 % 1.8 mm 9.0 W/m2 CLR
17:11 5.2 °C 4.2 °C 1021.2 hPa Calm     93 % 1.8 mm 11.0 W/m2 RA
17:16 5.2 °C 4.1 °C 1021.2 hPa Calm     93 % 1.5 mm 9.0 W/m2 CLR
17:21 5.1 °C 4.1 °C 1021.2 hPa Calm     93 % 1.5 mm 7.0 W/m2 RA
17:26 5.1 °C 4.0 °C 1021.2 hPa Calm     93 % 1.5 mm 7.0 W/m2 CLR
17:31 5.1 °C 4.1 °C 1021.2 hPa Calm     93 % 1.5 mm 5.0 W/m2 RA
17:46 5.2 °C 4.3 °C 1021.6 hPa Calm     94 % 1.0 mm 0.0 W/m2 OVC
17:51 5.2 °C 4.3 °C 1021.6 hPa Calm     94 % 0.8 mm 0.0 W/m2 OVC
17:56 5.2 °C 4.1 °C 1021.6 hPa Calm     93 % 0.5 mm 0.0 W/m2 OVC
18:01 5.2 °C 4.1 °C 1021.6 hPa Calm     93 % 0.5 mm 0.0 W/m2 OVC
18:06 5.1 °C 4.1 °C 1021.6 hPa Calm     93 % 0.5 mm 0.0 W/m2 CLR
18:11 5.1 °C 4.2 °C 1021.6 hPa Calm     94 % 0.5 mm 0.0 W/m2 RA
18:16 5.1 °C 4.2 °C 1021.6 hPa Calm     94 % 0.5 mm 0.0 W/m2
18:21 5.1 °C 4.2 °C 1021.6 hPa Calm     94 % 0.5 mm 0.0 W/m2 CLR
18:26 5.0 °C 4.1 °C 1021.6 hPa Calm     94 % 0.5 mm 0.0 W/m2 CLR
18:31 5.0 °C 4.1 °C 1021.6 hPa Calm     94 % 0.3 mm 0.0 W/m2 CLR
18:36 5.0 °C 4.1 °C 1021.6 hPa Calm     94 % 0.3 mm 0.0 W/m2 CLR
18:41 4.9 °C 4.1 °C 1021.9 hPa Calm     94 % 0.3 mm 0.0 W/m2 CLR
18:46 5.0 °C 4.1 °C 1021.9 hPa Calm     94 % 0.5 mm 0.0 W/m2 RA
18:51 5.0 °C 4.1 °C 1021.9 hPa Calm     94 % 0.5 mm 0.0 W/m2 CLR
18:56 5.0 °C 4.1 °C 1021.9 hPa Calm     94 % 0.5 mm 0.0 W/m2 CLR
19:01 4.9 °C 4.1 °C 1021.9 hPa Calm     94 % 0.5 mm 0.0 W/m2 RA
19:06 4.9 °C 4.1 °C 1021.9 hPa Calm     94 % 0.5 mm 0.0 W/m2 CLR
19:11 4.9 °C 4.1 °C 1022.2 hPa Calm     94 % 0.5 mm 0.0 W/m2 RA
19:16 4.9 °C 4.1 °C 1022.2 hPa Calm     94 % 0.5 mm 0.0 W/m2 CLR
19:22 5.0 °C 4.1 °C 1022.2 hPa Calm     94 % 0.5 mm 0.0 W/m2 CLR
19:27 5.0 °C 4.1 °C 1022.2 hPa Calm     94 % 0.5 mm 0.0 W/m2 CLR
19:32 5.0 °C 4.1 °C 1022.2 hPa Calm     94 % 0.8 mm 0.0 W/m2 RA
19:37 5.0 °C 4.1 °C 1022.2 hPa Calm     94 % 1.0 mm 0.0 W/m2 RA
19:42 5.0 °C 4.1 °C 1022.2 hPa Calm     94 % 1.0 mm 0.0 W/m2
19:47 5.0 °C 4.1 °C 1022.2 hPa Calm     94 % 0.8 mm 0.0 W/m2 CLR
19:52 4.9 °C 4.1 °C 1022.2 hPa Calm     94 % 0.8 mm 0.0 W/m2 CLR
19:57 4.9 °C 4.0 °C 1022.2 hPa Calm     94 % 1.0 mm 0.0 W/m2 RA
20:02 4.9 °C 4.0 °C 1022.2 hPa Calm     94 % 1.0 mm 0.0 W/m2 RA
20:07 4.9 °C 4.0 °C 1022.2 hPa Calm     94 % 1.3 mm 0.0 W/m2 RA
20:12 4.9 °C 4.0 °C 1022.6 hPa Calm     94 % 1.0 mm 0.0 W/m2
20:17 4.9 °C 4.0 °C 1022.6 hPa Calm     94 % 1.5 mm 0.0 W/m2 RA
20:22 5.1 °C 4.2 °C 1022.6 hPa East 11.1 km/h 11.1 km/h 94 % 1.5 mm 0.0 W/m2 RA
20:27 5.3 °C 4.4 °C 1022.6 hPa Calm     94 % 1.8 mm 0.0 W/m2 RA
20:32 5.4 °C 4.6 °C 1022.2 hPa Calm     94 % 1.8 mm 0.0 W/m2 RA
20:37 5.6 °C 4.7 °C 1022.2 hPa Calm     94 % 1.8 mm 0.0 W/m2 RA
20:42 5.6 °C 4.7 °C 1022.6 hPa Calm     94 % 1.8 mm 0.0 W/m2
20:47 5.6 °C 4.7 °C 1022.6 hPa Calm     94 % 1.8 mm 0.0 W/m2 CLR
20:52 5.7 °C 4.8 °C 1022.6 hPa Calm     94 % 1.5 mm 0.0 W/m2 CLR
20:57 5.7 °C 4.8 °C 1022.6 hPa Calm     94 % 1.5 mm 0.0 W/m2 CLR
21:02 5.7 °C 4.8 °C 1022.6 hPa Calm     94 % 1.5 mm 0.0 W/m2 RA
21:07 5.7 °C 4.8 °C 1022.2 hPa Calm     94 % 1.5 mm 0.0 W/m2
21:12 5.6 °C 4.7 °C 1022.2 hPa Calm     94 % 1.5 mm 0.0 W/m2 CLR
21:17 5.6 °C 4.6 °C 1022.2 hPa Calm     93 % 1.0 mm 0.0 W/m2 CLR
21:22 5.6 °C 4.5 °C 1022.2 hPa Calm     93 % 0.8 mm 0.0 W/m2 CLR
21:27 5.5 °C 4.4 °C 1022.2 hPa Calm     93 % 0.5 mm 0.0 W/m2 CLR
21:32 5.4 °C 4.4 °C 1022.2 hPa Calm     93 % 0.5 mm 0.0 W/m2 CLR
21:37 5.4 °C 4.4 °C 1022.2 hPa Calm     93 % 0.3 mm 0.0 W/m2 CLR
21:42 5.4 °C 4.3 °C 1022.2 hPa Calm     93 % 0.3 mm 0.0 W/m2 CLR
21:47 5.4 °C 4.5 °C 1022.2 hPa Calm     94 % 0.3 mm 0.0 W/m2 CLR
21:52 5.3 °C 4.4 °C 1022.6 hPa Calm     94 % 0.3 mm 0.0 W/m2 CLR
21:57 5.3 °C 4.4 °C 1022.6 hPa Calm     94 % 0.3 mm 0.0 W/m2 CLR
22:02 5.3 °C 4.4 °C 1022.6 hPa Calm     94 % 0.0 mm 0.0 W/m2 CLR
22:07 5.3 °C 4.4 °C 1022.6 hPa Calm     94 % 0.0 mm 0.0 W/m2 CLR
22:12 5.3 °C 4.4 °C 1022.6 hPa Calm     94 % 0.0 mm 0.0 W/m2 CLR
22:17 5.3 °C 4.4 °C 1022.6 hPa Calm     94 % 0.0 mm 0.0 W/m2 CLR
22:22 5.3 °C 4.4 °C 1022.6 hPa Calm     94 % 0.0 mm 0.0 W/m2 CLR
22:27 5.3 °C 4.4 °C 1022.6 hPa Calm     94 % 0.0 mm 0.0 W/m2 CLR
22:32 5.3 °C 4.4 °C 1022.2 hPa Calm     94 % 0.0 mm 0.0 W/m2 CLR
22:37 5.3 °C 4.4 °C 1022.2 hPa Calm     94 % 0.0 mm 0.0 W/m2 CLR
22:42 5.3 °C 4.4 °C 1022.2 hPa Calm     94 % 0.0 mm 0.0 W/m2 CLR
22:47 5.3 °C 4.4 °C 1022.2 hPa Calm     94 % 0.0 mm 0.0 W/m2 CLR
22:52 5.3 °C 4.4 °C 1022.2 hPa Calm     94 % 0.0 mm 0.0 W/m2 CLR
22:57 5.3 °C 4.4 °C 1022.2 hPa Calm     94 % 0.0 mm 0.0 W/m2 CLR
23:02 5.2 °C 4.3 °C 1022.2 hPa Calm     94 % 0.0 mm 0.0 W/m2 CLR
23:07 5.1 °C 4.2 °C 1022.2 hPa Calm     94 % 0.0 mm 0.0 W/m2 CLR
23:12 5.1 °C 4.2 °C 1022.2 hPa Calm     94 % 0.0 mm 0.0 W/m2 CLR
23:17 5.1 °C 4.2 °C 1022.6 hPa Calm     94 % 0.0 mm 0.0 W/m2 CLR
23:22 5.1 °C 4.2 °C 1022.2 hPa Calm     94 % 0.0 mm 0.0 W/m2 CLR
23:27 5.1 °C 4.2 °C 1022.2 hPa Calm     94 % 0.0 mm 0.0 W/m2 CLR
23:32 5.1 °C 4.2 °C 1022.2 hPa Calm     94 % 0.0 mm 0.0 W/m2 CLR
23:37 5.1 °C 4.2 °C 1022.2 hPa Calm     94 % 0.0 mm 0.0 W/m2 CLR
23:42 5.1 °C 4.2 °C 1022.2 hPa Calm     94 % 0.0 mm 0.0 W/m2 CLR
23:47 5.1 °C 4.2 °C 1022.2 hPa Calm     94 % 0.0 mm 0.0 W/m2 CLR
23:52 5.0 °C 4.1 °C 1022.2 hPa Calm     94 % 0.0 mm 0.0 W/m2 CLR
23:57 5.0 °C 4.1 °C 1022.2 hPa Calm     94 % 0.0 mm 0.0 W/m2 CLR
Lo Temps de Massalio
Compliments of Weather Underground - 1.25 mb